TimeAKDT,TemperatureF,Dew PointF,Humidity,Sea Level PressureIn,VisibilityMPH,Wind Direction,Wind SpeedMPH,Gust SpeedMPH,PrecipitationIn,Events,Conditions,WindDirDegrees,DateUTC
12:29 AM,55.4,53.6,94,29.61,10.0,Calm,Calm,-,0.00,Rain,Light Rain,0,2013-08-18 08:29:00
12:53 AM,54.0,51.1,90,29.61,6.0,SW,3.5,-,0.02,Rain,Light Rain,230,2013-08-18 08:53:00
1:24 AM,53.6,53.6,100,29.62,2.0,Calm,Calm,-,0.02,Rain,Light Rain,0,2013-08-18 09:24:00
1:32 AM,53.6,51.8,94,29.61,1.2,Calm,Calm,-,0.02,Rain,Light Rain,0,2013-08-18 09:32:00
1:35 AM,53.6,53.6,100,29.61,2.0,Calm,Calm,-,0.03,Rain,Light Rain,0,2013-08-18 09:35:00
1:43 AM,53.6,51.8,94,29.61,1.5,Calm,Calm,-,0.03,Rain,Light Rain,0,2013-08-18 09:43:00
1:53 AM,54.0,53.1,97,29.61,2.5,Calm,Calm,-,0.03,Rain,Light Rain,0,2013-08-18 09:53:00
1:57 AM,53.6,53.6,100,29.62,3.0,Calm,Calm,-,0.00,,Overcast,0,2013-08-18 09:57:00
2:49 AM,53.6,51.8,94,29.62,1.8,Calm,Calm,-,0.01,Rain,Light Rain,0,2013-08-18 10:49:00
2:53 AM,52.0,51.1,97,29.61,1.2,Calm,Calm,-,0.01,Rain,Light Rain,0,2013-08-18 10:53:00
3:02 AM,51.8,51.8,100,29.60,2.0,Calm,Calm,-,0.00,Rain,Light Rain,0,2013-08-18 11:02:00
3:09 AM,51.8,51.8,100,29.60,1.8,Calm,Calm,-,0.00,Rain,Light Rain,0,2013-08-18 11:09:00
3:19 AM,53.6,51.8,94,29.61,4.0,Calm,Calm,-,0.00,Rain,Light Rain,0,2013-08-18 11:19:00
3:53 AM,54.0,52.0,93,29.62,8.0,Calm,Calm,-,0.02,Rain,Light Rain,0,2013-08-18 11:53:00
4:38 AM,53.6,53.6,100,29.61,10.0,Calm,Calm,-,0.00,,Overcast,0,2013-08-18 12:38:00
4:53 AM,54.0,52.0,93,29.60,4.0,Calm,Calm,-,0.00,Rain,Light Rain,0,2013-08-18 12:53:00
5:12 AM,53.6,51.8,94,29.61,9.0,Calm,Calm,-,0.01,,Overcast,0,2013-08-18 13:12:00
5:36 AM,53.6,51.8,94,29.60,10.0,ESE,3.5,-,0.01,,Overcast,110,2013-08-18 13:36:00
5:53 AM,54.0,52.0,93,29.61,10.0,Calm,Calm,-,0.01,,Overcast,0,2013-08-18 13:53:00
6:02 AM,53.6,51.8,94,29.61,10.0,Calm,Calm,-,N/A,,Overcast,0,2013-08-18 14:02:00
6:17 AM,55.4,51.8,88,29.60,8.0,Calm,Calm,-,0.00,Rain,Light Rain,0,2013-08-18 14:17:00
6:33 AM,55.4,51.8,88,29.60,4.0,Calm,Calm,-,0.01,Rain,Light Rain,0,2013-08-18 14:33:00
6:43 AM,55.4,51.8,88,29.61,6.0,Calm,Calm,-,0.02,Rain,Light Rain,0,2013-08-18 14:43:00
6:53 AM,55.9,52.0,87,29.60,10.0,SSW,3.5,-,0.02,Rain,Light Rain,200,2013-08-18 14:53:00
7:21 AM,55.4,53.6,94,29.61,10.0,Calm,Calm,-,0.00,Rain,Light Rain,0,2013-08-18 15:21:00
7:53 AM,55.9,51.1,84,29.63,10.0,SSW,9.2,-,0.01,Rain,Light Rain,200,2013-08-18 15:53:00
8:53 AM,57.0,50.0,77,29.63,10.0,South,9.2,16.1,0.01,,Overcast,190,2013-08-18 16:53:00
9:53 AM,57.9,50.0,75,29.64,10.0,SSW,6.9,-,N/A,,Overcast,210,2013-08-18 17:53:00
10:53 AM,57.9,48.0,70,29.65,10.0,SSW,17.3,-,N/A,,Mostly Cloudy,200,2013-08-18 18:53:00
11:53 AM,57.0,48.0,72,29.65,10.0,SSW,23.0,-,N/A,,Overcast,210,2013-08-18 19:53:00
12:53 PM,57.9,48.0,70,29.66,10.0,SSW,24.2,-,N/A,,Overcast,210,2013-08-18 20:53:00
1:53 PM,60.1,48.0,64,29.67,10.0,SSW,18.4,24.2,N/A,,Mostly Cloudy,200,2013-08-18 21:53:00
2:53 PM,60.1,48.9,67,29.67,10.0,SSW,18.4,24.2,N/A,,Mostly Cloudy,200,2013-08-18 22:53:00
3:53 PM,59.0,48.0,67,29.67,10.0,SSW,20.7,28.8,N/A,,Scattered Clouds,200,2013-08-18 23:53:00
4:53 PM,57.9,46.9,67,29.66,10.0,SSW,21.9,28.8,N/A,,Mostly Cloudy,210,2013-08-19 00:53:00
5:53 PM,59.0,46.9,64,29.66,10.0,SSW,20.7,27.6,N/A,,Mostly Cloudy,200,2013-08-19 01:53:00
6:53 PM,57.9,48.0,70,29.67,10.0,SSW,20.7,27.6,N/A,,Overcast,210,2013-08-19 02:53:00
7:53 PM,57.0,48.0,72,29.67,10.0,SSW,19.6,24.2,N/A,,Overcast,210,2013-08-19 03:53:00
8:53 PM,57.0,48.0,72,29.68,10.0,SSW,12.7,-,N/A,,Overcast,200,2013-08-19 04:53:00
9:53 PM,57.0,48.0,72,29.69,10.0,SSW,15.0,-,N/A,,Overcast,210,2013-08-19 05:53:00
10:53 PM,55.9,48.9,77,29.69,10.0,SSW,21.9,-,0.00,Rain,Light Rain,210,2013-08-19 06:53:00
11:53 PM,55.9,48.9,77,29.70,9.0,SSW,12.7,-,0.01,Rain,Light Rain,200,2013-08-19 07:53:00